www.pogodaiklimat.ru

Погода и климат >> Архив погоды >> Ирак >> Diwaniya


ПОГОДА в Diwaniya

  • Прогноз погоды в Diwaniya
  • Монитор погоды в Diwaniya
  • Климат города

АРХИВ ПОГОДЫ в Diwaniya

Время (UTC), дата Ветер
(напр.,м/с)
 
Видим.   Явления Облачность Т
(С)
Тd
(С)
f
(%)
Тe
(С)
Тes
(С)
Комфортность P
(гПа)
Po
(гПа)
Тmin
(С)
Tmax
(С)
R
(мм)
R24
(мм)
S
(см)
12 12.07 СЗ 4 10 км ясно +44.2 +4.8 9 +41 +50 опасность
перегрева
997.8 998.0
15 12.07 СЗ 2 10 км ясно +43.0 +9.5 14 +41 +42 опасность
перегрева
997.1 997.0
18 12.07 штиль 0 10 км ясно +36.6 +15.4 28 +38 +38 очень
душно
997.7 998.0 +44.5
21 12.07 С 2 10 км 3/0
[Ci fib]
+35.0 +8.6 20 +33 +33 жарко 998.0 998.0
00 13.07 С 2 10 км ясно +30.4 +8.2 25 +30 +30 жарко 997.1 997.0
06 13.07 СЗ 2 10 км ясно +35.8 +13.4 26 +36 +49 очень
жарко
997.7 998.0 +29.4
09 13.07 З 3 10 км ясно +40.6 +12.3 19 +40 +58 опасность
солнечного
удара
998.2 998.0
12 13.07 СЗ 2 10 км ясно +43.4 +6.1 11 +41 +53 опасность
перегрева
997.3 997.0
15 13.07 СЗ 2 10 км ясно +42.6 +11.6 16 +42 +42 опасность
перегрева
997.0 997.0
18 13.07 СЗ 2 10 км ясно +37.5 +15.0 26 +39 +39 очень
душно
997.5 998.0 +44.3
21 13.07 СЗ 2 10 км ясно +32.0 +16.1 38 +35 +35 очень
душно
997.6 998.0
06 14.07 СЗ 2 10 км ясно +35.0 +11.6 24 +35 +47 очень
жарко
998.7 999.0 +28.0
09 14.07 С 2 10 км ясно +42.8 +9.7 14 +41 +63 опасность
перегрева
998.2 998.0
21 15.07 штиль 0 10 км 4/0
[Ac trans]
+36.7 +14.9 27 +38 +38 очень
душно
997.0 997.0
09 16.07 СЗ 2 10 км ясно +41.6 +18.2 26 +45 +66 опасность
перегрева
998.8 999.0
12 16.07 СЗ 2 10 км 3/0
[Ci sp]
+42.8 +15.6 21 +44 +56 опасность
перегрева
1000.2 1000.0
15 16.07 СЗ 2 10 км ясно +41.8 +28.0 46 +60 +61 опасность
перегрева
990.4 990.0
18 16.07 СЗ 2 10 км ясно +37.4 +10.8 20 +36 +36 очень
жарко
998.3 998.0 +44.0
09 17.07 СЗ 5 10 км ясно +40.2 +15.8 24 +42 +53 опасность
перегрева
998.8 999.0
12 17.07 СЗ 4 10 км ясно +41.8 +12.1 17 +41 +49 опасность
перегрева
997.5 998.0
15 17.07 СЗ 3 10 км ясно +40.8 +15.4 23 +42 +43 опасность
перегрева
997.3 997.0
18 17.07 СЗ 2 10 км ясно +35.3 +20.8 43 +42 +42 опасность
перегрева
998.7 999.0 +43.0
21 17.07 СЗ 2 10 км ясно +34.0 +15.3 33 +36 +36 душно 997.9 998.0
00 18.07 СЗ 2 10 км ясно +31.6 +14.2 35 +33 +33 жарко 997.9 998.0
03 18.07 СЗ 3 10 км ясно +30.5 +12.4 33 +31 +32 жарко 998.1 998.0
06 18.07 СЗ 4 10 км ясно +34.0 +16.8 36 +37 +45 очень
душно
998.9 999.0 +30.0
09 18.07 СЗ 3 10 км ясно +40.0 +11.2 18 +39 +57 опасность
солнечного
удара
998.7 999.0
12 18.07 СЗ 3 10 км ясно +42.8 +9.7 14 +41 +52 опасность
перегрева
997.1 997.0
15 18.07 СЗ 2 10 км ясно +42.0 +9.2 14 +40 +41 очень
жарко
996.5 997.0
18 18.07 штиль 0 10 км ясно +37.0 +12.2 23 +37 +37 очень
жарко
997.0 997.0 +43.5
00 19.07 СЗ 2 10 км ясно +31.4 +8.1 23 +30 +30 жарко 997.8 998.0
03 19.07 СЗ 2 10 км ясно +29.0 +10.8 32 +29 +30 жарко 999.2 999.0

 

Местоположение метеостанции Diwaniya (Ирак): широта 31.98 долгота 44.98 высота над уровнем моря 20 м.

В архиве по умолчанию представлена погода в Diwaniya за последнюю неделю. Архивные данные за месяц целиком и за предыдущие месяцы, начиная с января 2011 года, Вы можете получить, выбрав интересующий диапазон дат из раскрывающегося списка и нажав кнопку "Ввод!".


*Определитесь, кто Вы:
робот инопланетянин человек

Внимание! Время в таблицах - всемирное. Для получения местного времени необходимо прибавить поправку, которая в Diwaniya равна 3 ч.

Смотрите также архив погоды в соседних городах и на ближайших метеорологических станциях:

Погода в Najaf (Ирак) (62 км)
Погода в Hella (Ирак) (72 км)
Погода в Samawah (Ирак) (80 км)
Погода в Ubaydah Bin Al Jarrah (Ирак) (92 км)
Погода в Kut-Al-Hai (Ирак) (103 км)
Погода в Azizyah (Ирак) (105 км)
Погода в Rifai (Ирак) (110 км)
Погода в Karbalaa (Ирак) (115 км)
Погода в Badrah (Ирак) (154 км)
Погода в Nasiriya (Ирак) (155 км)

Пояснения к столбцам:

Ветер - указаны скорость ветра в м/с - средняя за 10 мин, порывы в срок и между сроками (в фигурных скобках) и направление, откуда дует ветер: С - северный, СВ - северо-восточный, В - восточный, ЮВ - юго-восточный, Ю - южный, ЮЗ - юго-западный, З - западный, СЗ - северо-западный.
Видимость - горизонтальная дальность видимости в метрах или километрах. При видимости от 1 до 10 км при отсутствии осадков обычно наблюдается дымка, при ухудшении видимости до 1 км и менее - туман. В сухую погоду видимость может ухудшаться дымом, пылью или мглою.
Явления - указаны атмосферные явления, наблюдавшиеся в срок или в последний час перед сроком; фигурными скобками обозначены явления, наблюдавшиеся между сроками (за 1-3 часа до срока); квадратными скобками обозначены град или гололедные отложения с указанием их диаметра в мм.
Облачность - указаны через наклонную черту общая и нижняя облачность в баллах и высота нижней границы облаков в метрах; квадратными скобками обозначены формы облаков: Ci - перистые, Cs - перисто-слоистые, Cc - перисто-кучевые, Ac - высококучевые, As - высокослоистые, Sc - слоисто-кучевые, Ns - слоисто-дождевые, Cu - кучевые, Cb - кучево-дождевые. Подробнее классификацию облаков см. в Атласе облаков (PDF).
T - Температура воздуха - температура, измеренная на высоте 2 м над землей.
Td - Температура точки росы - температура, при понижении до которой содержащийся в воздухе водяной пар достигнет насыщения.
f - Относительная влажность воздуха - влажноcть воздуха, измеренная на высоте 2 м над землей.
Te - Эффективная температура - температура, которую ощущает одетый по сезону человек в тени. Характеристика душности погоды. При расчете учитывается влияние влажности воздуха и скорости ветра на теплоощущения человека.
Tes - Эффективная температура на солнце - температура, которую ощущает человек, с поправкой на солнечный нагрев. Характеристика знойности погоды. Зависит от высоты солнца над горизонтом, облачности и скорости ветра. Ночью, в пасмурную погоду, а также при ветре 12 м/с и более поправка равна нулю.
P - Атмосферное давление - приведенное к уровню моря атмосферное давление.
Po - Атмосферное давление - измеренное на уровне метеостанции атмосферное давление.
Tmin - Минимальная температура - минимум температуры воздуха на высоте 2 м над землей.
Tmax - Максимальная температура - максимум температуры воздуха на высоте 2 м над землей.
R - Количество осадков - Количество выпавших осадков за период времени, мм. При наведении курсора мыши на число - период времени, за который выпало указанное количество осадков.
R24 - Количество осадков - Количество выпавших осадков за 24 часа, мм.
S - Снежный покров - Высота снежного покрова, см. При наведении курсора мыши на число - состояние снежного покрова и степень покрытия местности в баллах.